Regional Weather Roundup
Issued by NWS Charleston, SC

Current Version | Previous Version | Graphics & Text | Print | Product List | Glossary On
Versions: 1 2 3 4 5 6 7 8 9 10 11 12 13 14 15 16 17 18 19 20 21 22 23 24 25 26 27 28 29 30 31 32 33 34 35 36 37 38 39 40 41 42 43 44 45 46 47 48 49 50
000 ASUS42 KCHS 212310 RWRCHS REGIONAL WEATHER ROUNDUP NATIONAL WEATHER SERVICE CHARLESTON SC 700 PM EDT THU AUG 21 2014 NOTE: "FAIR" INDICATES FEW OR NO CLOUDS BELOW 12,000 FEET WITH NO SIGNIFICANT WEATHER AND/OR OBSTRUCTIONS TO VISIBILITY. NOT ALL STATIONS ARE QUALITY CONTROLLED BY THE NATIONAL WEATHER SERVICE. USE DATA WITH CAUTION...ESPECIALLY DEWPOINT OBSERVATIONS. SCZ027-030-031-034>040-042>050-220000- ...SOUTH CAROLINA... CITY SKY/WX TMP DP RH WIND PRES REMARKS N CHARLESTON MOSUNNY 94 68 42 N7 30.03R HX 98 WATERFRONT PRK NOT AVBL FORT JOHNSON NOT AVBL MOUNT PLEASANT FAIR 93 72 49 CALM 30.02S HX 100 JOHNS ISLAND MOCLDY 95 77 55 CALM 30.02S HX 109 PINOPOLIS N/A 99 77 49 CALM 29.96S HX 114 MONCKS CORNER N/A 90 79 70 CALM 30.03R HX 105 SUMMERVILLE FAIR 91 73 55 CALM 30.03S HX 100 BEAUFORT MCAS MOSUNNY 95 68 41 NE5 30.03R HX 99 BEAUFORT ARPT FAIR 93 73 52 NE3 30.02R HX 102 HILTON HEAD IS SUNNY 88 75 66 SE5 30.04R HX 97 GEORGETOWN NOT AVBL WALTERBORO CLEAR 95 57 28 CALM 30.03S HX 94 ORANGEBURG SUNNY 94 66 39 NE5 30.04R HX 97 BARNWELL FAIR 97 64 34 NE6 30.04S HX 99 AIKEN FAIR 93 68 43 E6 30.09R HX 97 MANNING FAIR 93 77 59 CALM 30.03R HX 107 KINGSTREE NOT AVBL COLUMBIA MOSUNNY 95 64 35 NE5 30.03S HX 97 SUMTER MOSUNNY 92 67 43 N5 30.03R HX 96 FLORENCE MOSUNNY 94 64 37 N5 30.02R HX 95 MYRTLE BEACH SUNNY 86 72 62 S12 30.03R HX 92 N MYRTLE BEACH PTSUNNY 84 73 69 SW8 30.02S HX 90 $$ GAZ063-065-086>088-099>101-113>116-118-119-134-136>141-150-220000- ...GEORGIA... CITY SKY/WX TMP DP RH WIND PRES REMARKS SAVANNAH ARPT MOSUNNY 95 69 42 NW5 30.03R HX 100 HUNTER AAF SUNNY 94 72 49 NW6 30.01S HX 102 FORT STEWART SUNNY 96 65 35 N6 30.02S HX 98 STATESBORO NOT AVBL SYLVANIA CLEAR 96 70 43 CALM 30.05S HX 102 CLAXTON FAIR 93 72 49 CALM 30.04S HX 100 THOMSON MOSUNNY 87 73 63 W12G23 30.12R HX 94 AUGUSTA-BUSH SUNNY 95 64 35 SW5 30.02F HX 97 AUGUSTA-DANIEL SUNNY 96 65 35 SW3 30.05S HX 98 SWAINSBORO FAIR 88 73 62 CALM 30.06F HX 96 VIDALIA N/A 91 73 55 CALM 30.05F HX 100 ALMA SUNNY 95 69 42 NW6 30.04S HX 100 WAYCROSS SUNNY 98 74 46 N5 30.04S HX 108 JESUP N/A 97 68 38 NE3 30.04S HX 101 BRUNSWICK SUNNY 93 72 49 CALM 30.04S HX 100 SAINT SIMONS SUNNY 89 76 65 S6 30.03S HX 100 $$ SCZ027-028-034-036>038-045-046-048>050-GAZ119-141-220000- ...LAKE AND SUPPLEMENTAL COASTAL OBSERVATIONS... STATION/POSITION TIME TEMP WIND PRES WAVE SWELL AIR SEA DIR/SP/G HT/PER HT/PER/DIR (UTC) (F) (DEG/KT/KT) (MB) (FT/S) (FT/S/D) UPR LAKE MARION NOT AVBL WINYAH BAY 2200 88 80/ 5 1016.0S LAKE MURRAY 2200 93 190/ 4/ 4 1016.3F ACE BASIN NERRS 2200 96 330/ 1 1017.0S FORT PULASKI 2300 93 290/ 4/ 5 1016.9R SAPELO ISLAND 2200 96 360/ 5 1018.0S $$ ANZ835-935-AMZ111-154-330-350-352-354-374-450-454-472-220000- ...C-MAN AND BUOY OBSERVATIONS... STATION/POSITION TIME TEMP WIND PRES WAVE SWELL AIR SEA DIR/SP/G HT/PER HT/PER/DIR (UTC) (F) (DEG/KT/KT) (MB) (FT/S) (FT/S/D) FOLLY BEACH CMAN 2200 87 200/ 8/ 9 1016.9F BUOY 41004 2300 84 85 200/ 4/ 6 1016.5R 2/ 4 2/ 4 BUOY 41008 2300 85 86 170/ 8/ 10 1016.8R 1/10 5E ST. MARYS GA 2300 84 N/A 1/11 FRYING PAN BUOY NOT AVBL BUOY 41025 2300 81 210/ 6/ 8 1016.2F 2/ 8 2/ 60/ 8 CAPE LOOKOUT NC 2200 84 210/ 6/ 9 1016.3F BUOY 41002 2250 82 82 250/ 8/ 10 1018.6S 2/ 7 2/ 20/ 7 BUOY 41010 2300 85 86 200/ 4/ 4 1018.9R 1/ 8 2/110/ 8 BUOY 41012 NOT AVBL ST AUGUSTINE FL 2300 85 190/ 7/ 8 1018.7R CAPERS NEARSHORE 2200 87 220/ 8/ 8 N/A FRIPP NEARSHORE NOT AVBL $$

USA.gov is the U.S. government's official web portal to all federal, state and local government web resources and services.